Regional Weather Roundup
Issued by NWS Sterling, VA

Home | Current Version | Previous Version | Graphics & Text | Print | Product List | Glossary On
Versions: 1 2 3 4 5 6 7 8 9 10 11 12 13 14 15 16 17 18 19 20 21 22 23 24 25 26 27 28 29 30 31 32 33 34 35 36 37 38 39 40 41 42 43 44 45 46 47 48 49 50
000
ASUS41 KLWX 032210
RWRLWX

REGIONAL WEATHER ROUNDUP
NATIONAL WEATHER SERVICE BALTIMORE MD/WASHINGTON DC
600 PM EDT FRI JUL 03 2015

Note: "FAIR" indicates few or no clouds below 12,000 feet
with no significant weather and/or obstructions to visibility.
 TC=TEMPERATURE CELSIUS

 * =Non NWS site. Station does not report precipitation (e.g. rain,
    snow, etc.), thunder, or fog.

DCZ001-MDZ009-015-VAZ040>042-051-053>054-032300-
WASHINGTON METRO

CITY           SKY/WX    TMP DP  RH WIND       PRES   REMARKS
WASHINGTON NAT CLOUDY    81  66  61 SE7       29.94F
DULLES         CLOUDY    76  63  64 S6        29.94F
ANDREWS AFB    CLOUDY    76  70  82 E5        29.94F
FT BELVOIR     CLOUDY    77  68  73 SE2       29.94S
QUANTICO       LGT RAIN  78  66  66 SE8       29.94F
COLLEGE PARK*  CLOUDY    77  64  65 E3        29.94S
LEESBURG*      LGT RAIN  77  70  78 S7        29.95S
MANASSAS*      CLOUDY    73  70  88 W3        29.94S
GAITHERSBURG*  CLOUDY    73  63  68 CALM      29.98F

$$

MDZ006>007-011-014-032300-
BALTIMORE METRO

CITY           SKY/WX    TMP DP  RH WIND       PRES   REMARKS
BWI AIRPORT    CLOUDY    77  60  55 SE5       29.94F
MD SCIENCE CTR   N/A     80  57  45 MISG      29.93F
MARTIN STATE   PTSUNNY   79  64  61 S7        29.96F
ANNAPOLIS      PTSUNNY   77  62  59 VRB7      29.95S
FORT MEADE*    CLOUDY    73  64  73 SE3       29.97S

$$

MDZ012-015-019>023-032300-
MARYLAND EASTERN SHORE

CITY           SKY/WX    TMP DP  RH WIND       PRES   REMARKS
OCEAN CITY     MOSUNNY   75  65  70 SE9       29.98S
SALISBURY      PTSUNNY   76  64  66 SE7       29.97R
BAY BRIDGE AP*   N/A     77  63  61 SW5       29.95S
CAMBRIDGE*     PTSUNNY   79  63  57 SE5       29.95S
EASTON*        MOSUNNY   81  68  65 SW6       29.98

$$

MDZ017>025-032300-
SOUTHERN MARYLAND

CITY           SKY/WX    TMP DP  RH WIND       PRES   REMARKS
PATUXENT RIVER PTSUNNY   78  62  57 S9        29.95S
ST INIGOES     PTSUNNY   78  63  59 E9        29.94S
LEONARDTOWN*   PTSUNNY   73  63  68 CALM      29.96S

$$

MDZ003>005-032300-
NORTH CENTRAL MARYLAND

CITY           SKY/WX    TMP DP  RH WIND       PRES   REMARKS
FREDERICK*     CLOUDY    79  68  69 S9        29.97S
HAGERSTOWN APT CLOUDY    77  59  53 SE12      29.94F
WESTMINSTER*   CLOUDY    79  64  61 SE7       29.96F

$$

MDZ501>502-032300-
WESTERN MARYLAND

CITY           SKY/WX    TMP DP  RH WIND       PRES   REMARKS
OAKLAND*       CLOUDY    61 N/A N/A SE8       29.99F FOG
CUMBERLAND*    CLOUDY    70  68  94 S5        29.98S

$$

VAZ025>031-032300-
SHENANDOAH VALLEY

CITY           SKY/WX    TMP DP  RH WIND       PRES   REMARKS
WINCHESTER*    DRIZZLE   72  64  78 S5        29.96R
FRONT ROYAL*   CLOUDY    70  64  83 CALM      29.94F
LURAY*         CLOUDY    72  68  88 N3        29.95F
NEW MARKET*    CLOUDY    69  65  86 CALM      29.94F
STAUNTON*      CLOUDY    73  66  77 N3        29.98S
WAYNESBORO*    CLOUDY    70  62  76 SE6       29.97S

$$

WVZ021-048>050-054>055-032300-
EASTERN WEST VIRGINIA PANHANDLE

CITY           SKY/WX    TMP DP  RH WIND       PRES   REMARKS
MARTINSBURG    CLOUDY    75  62  64 S7        29.95S
PETERSBURG*    RAIN      69  62  76 CALM      29.96S

$$

VAZ036>039-050-032300-
CENTRAL FOOTHILLS

CITY           SKY/WX    TMP DP  RH WIND       PRES   REMARKS
CHARLOTTESVILL CLOUDY    75  64  68 CALM      29.94F
CULPEPER*      CLOUDY    74  67  78 CALM      29.94F
ORANGE*        CLOUDY    75  66  73 CALM      29.96S
GORDONSVILLE*  CLOUDY    73  68  83 CALM      29.93F
WARRENTON*     DRIZZLE   77  70  78 CALM      29.94S

$$

VAZ055>057-032300-
NORTH AND CENTRAL PIEDMONT

CITY           SKY/WX    TMP DP  RH WIND       PRES   REMARKS
FREDERICKSBRG* RAIN      80  66  63 E3        29.93S
STAFFORD*      CLOUDY    76  64  67 E5        29.98R

$$

NCZ024-NYZ072-PAZ021-071-VAZ022-071-032300-
OTHER REGIONAL OBSERVATIONS

CITY           SKY/WX    TMP DP  RH WIND       PRES   REMARKS
NEW YORK CITY  PTSUNNY   79  55  43 VRB5      29.98S
PHILADELPHIA   CLOUDY    81  62  52 S7        29.95S
PITTSBURGH     LGT RAIN  77  58  51 CALM      29.90S
ROANOKE        CLOUDY    69  66  90 NE6       29.96S FOG
RICHMOND       CLOUDY    80  65  59 E7        29.92S
RALEIGH        CLOUDY    77  72  84 SW8       29.91R

$$

ANZ530>537-032300-
MARINE OBSERVATIONS

STATION/POSITION TIME  TEMP    WIND        PRES
                       AIR SEA DIR/SP/G
                 (UTC) (F)     (DEG/KT/KT) (MB)
THOMAS PT LIGHT  2200   76 77  180/ 10/ 11 1014.5F
BALT KEY BRIDGE  2100   78     130/  8/ 11 1014.0F
COVE POINT       2100   76     190/ 11/ 12 1015.0F
LEWISETTA        2100   78 81  150/  9/ 11 1013.6F
SOLOMONS ISLAND  2100      81                N/A
PINEY POINT      2100          150/ 13/ 15   N/A

$$




USA.gov is the U.S. government's official web portal to all federal, state and local government web resources and services.